Simultaneous Nadir Overpasses (SNOs) Predictions

Prediction of SNOs between FY3D and NOAA-19 Satellite Orbit:

Table of predicted SNOs for the next 14.0 days since TLE Epoch: 7/25/2020
Index Date (FY3D) Time (FY3D) Lat,Lon (FY3D) SZA (FY3D ) Date (NOAA-19) Time (NOAA-19) Lat,Lon (NOAA-19) SZA (NOAA-19 ) Distance(km) Time Diff (sec)
1 07/25/2020 13:06:28 -79.06, 133.69 118.75 07/25/2020 13:05:22 -79.05, 130.19 118.33 73.95 66
2 07/25/2020 13:57:19 79.29, -60.67 61.63 07/25/2020 13:56:10 79.28, -60.55 61.64 2.62 69
3 07/25/2020 14:48:03 -79.27, 106.80 118.40 07/25/2020 14:47:15 -79.29, 106.71 118.35 2.75 48
4 07/25/2020 15:38:48 79.29, -86.03 61.64 07/25/2020 15:38:10 79.30, -85.89 61.66 3.08 38
5 07/25/2020 16:29:33 -79.30, 81.19 118.33 07/25/2020 16:29:15 -79.30, 81.36 118.34 3.60 18
6 07/25/2020 17:20:17 79.29,-111.38 61.66 07/25/2020 17:20:11 79.29,-111.51 61.67 2.73 6
7 07/25/2020 18:11:02 -79.30, 55.83 118.32 07/25/2020 18:11:16 -79.29, 55.74 118.32 2.20 14
8 07/25/2020 19:01:47 79.32,-137.00 61.72 07/25/2020 19:02:11 79.31,-136.86 61.69 3.29 24
9 07/25/2020 19:52:31 -79.30, 30.47 118.31 07/25/2020 19:53:16 -79.31, 30.39 118.31 2.03 45
10 07/25/2020 20:43:16 79.32,-162.36 61.74 07/25/2020 20:44:11 79.32,-162.21 61.70 3.15 55
11 07/25/2020 21:34:01 -79.33, 4.86 118.24 07/25/2020 21:35:16 -79.32, 5.04 118.30 3.85 75
